Temp
8 7 7 7 6 6 6 6 6 6 6 5 5 5 6 6 6 6 6 6 6 6 6 6 7 6 6 6 7 7 7 7 7 6 6 6 6 6 6 6 6 6 6
8 7 7 6 6 6 6 6 6 6 6 5 5 5 5 5 5 6 5 5 5 6 6 6 6 6 6 6 6 6 7 7 6 6 6 6 6 6 6 6 6 6 6
7 6 6 6 6 6 6 5 6 5 6 5 5 5 5 5 5 5 5 5 5 5 6 6 5 5 6 6 6 6 6 6 6 6 6 6 6 6 6 6 6 6 6
7 7 6 6 6 6 6 5 5 5 5 5 5 5 4 4 4 5 5 5 5 4 5 5 5 5 5 5 5 6 6 6 6 6 6 6 6 6 6 6 6 6 6
7 7 6 7 7 6 6 5 5 5 5 5 5 5 5 4 4 4 4 4 4 5 5 5 5 5 4 5 5 5 5 5 6 6 6 6 6 6 6 6 6 6 6
7 7 7 7 7 6 5 5 4 4 4 5 4 5 4 4 4 5 4 4 4 5 5 4 3 3 4 4 5 5 5 5 5 5 5 5 6 6 6 6 6 6 6
7 7 7 7 6 6 5 5 4 4 4 4 4 4 4 4 4 4 5 4 4 4 4 4 4 4 3 4 4 5 5 5 5 5 5 5 5 5 5 5 6 6 6
7 7 7 7 6 6 5 5 5 4 4 4 3 4 4 4 4 4 4 4 4 4 4 4 3 4 3 4 4 4 4 4 5 5 5 5 5 5 5 5 5 6 6
7 6 6 7 6 6 5 5 5 5 4 4 3 4 4 3 5 4 4 4 3 3 3 4 2 4 4 4 4 4 4 4 5 5 5 5 5 5 5 5 5 5 6
6 6 6 6 6 6 5 4 4 5 4 4 3 3 3 3 4 4 4 4 3 3 3 3 3 4 4 4 4 4 4 5 5 5 5 5 5 5 5 5 5 5 6
6 6 6 6 6 6 5 5 4 3 3 3 3 3 3 3 2 3 3 3 4 4 3 2 2 3 4 4 4 4 4 5 5 5 5 5 5 5 5 5 5 5 6
6 6 6 6 6 6 5 5 4 3 3 3 3 3 3 3 2 2 2 3 3 2 2 1 1 3 3 3 4 4 4 4 4 5 5 5 5 5 5 5 5 5 5
6 6 6 6 6 6 6 5 4 3 3 3 3 3 3 3 2 1 2 3 2 2 1 2 3 3 3 4 4 4 4 5 5 5 5 5 5 5 5 6 6 6 6
5 5 5 6 5 6 6 5 4 3 2 2 3 3 3 2 2 2 2 3 2 1 1 2 3 3 3 3 4 4 4 4 4 5 5 5 5 5 5 5 6 6 6
6 5 5 5 5 5 5 4 4 4 3 3 3 2 2 2 2 2 2 2 1 0 1 2 3 3 3 3 4 4 4 4 4 4 4 5 5 5 5 5 5 5 5
5 5 5 5 5 5 4 3 3 3 3 3 2 2 1 1 1 1 1 1 1 2 2 2 2 2 3 3 3 3 4 4 4 4 4 4 5 4 4 5 5 5 5
5 4 4 4 4 4 4 3 2 2 3 2 2 2 1 1 1 1 1 1 2 2 2 3 3 3 3 3 3 3 3 4 4 4 4 4 4 4 4 4 4 4 4
5 5 4 4 4 4 4 3 2 2 2 2 2 1 1 1 1 1 1 1 1 1 1 1 2 2 2 2 2 2 3 3 3 4 3 3 4 4 4 4 4 4 4
5 4 4 4 4 4 4 3 2 2 2 1 1 1 1 1 1 0 1 1 1 1 2 2 2 1 2 2 2 2 3 3 3 3 3 3 3 3 3 3 3 4 4
4 4 4 4 4 3 3 3 2 2 1 1 1 1 0 1 0 0 0 1 1 1 2 1 1 1 1 2 2 2 2 2 3 3 3 3 3 3 3 3 3 3 3
4 4 4 5 4 4 3 3 2 2 1 0 1 1 0 0 0 -0 -0 0 0 1 1 0 0 1 0 1 1 2 2 2 2 2 2 2 2 2 2 2 2 2 2
4 4 4 4 4 3 3 3 3 2 1 -0 1 -0 0 -0 0 1 0 0 -0 -0 0 1 0 -0 -1 -1 0 0 1 1 2 2 2 2 2 2 2 2 2 2 2
4 3 3 4 3 3 3 3 2 2 1 0 1 -0 0 -0 0 -0 0 -1 1 -0 -0 -1 -1 -1 -2 -2 -2 -1 -1 -0 0 0 1 1 1 1 1 1 1 1 1
4 3 3 3 3 3 3 3 2 1 1 1 0 -0 -0 0 0 -1 -0 -1 -1 -0 -1 -1 -1 -1 -1 -2 -2 -2 -2 -2 -1 -1 -0 -0 -0 0 0 0 1 1 1
3 3 3 3 2 2 2 1 2 1 -0 -1 -1 -0 0 -1 0 -0 -1 -1 -1 -1 -1 -1 -2 -1 -2 -2 -3 -3 -2 -2 -1 -1 -0 -1 -1 -1 -1 -0 -0 -0 0
2 2 2 2 1 1 0 0 -1 -2 -2 -1 -1 -1 -0 -0 -1 -0 -0 -1 -1 -1 -1 -2 -2 -2 -2 -2 -3 -4 -2 -2 -2 -2 -1 -1 -1 -1 -1 -1 -1 -1 -1
Height
3099 3099 3100 3100 3100 3101 3101 3100 3100 3100 3099 3100 3101 3101 3102 3103 3106 3107 3109 3110 3112 3114 3115 3117 3118 3119 3120 3121 3124 3125 3127 3129 3131 3133 3134 3136 3138 3139 3141 3143 3144 3146 3148
3097 3097 3097 3098 3098 3098 3097 3097 3098 3098 3098 3098 3099 3098 3097 3098 3103 3106 3107 3109 3111 3113 3115 3116 3117 3119 3119 3120 3124 3126 3127 3129 3132 3134 3136 3137 3139 3141 3143 3144 3146 3148 3149
3094 3095 3095 3095 3095 3095 3094 3093 3094 3095 3096 3096 3097 3095 3077 3092 3100 3103 3105 3108 3110 3112 3114 3115 3116 3117 3119 3121 3123 3127 3129 3130 3133 3135 3137 3139 3141 3143 3145 3146 3148 3149 3151
3092 3092 3092 3092 3091 3090 3090 3089 3091 3092 3093 3093 3095 3093 3091 3091 3092 3103 3102 3107 3108 3110 3112 3113 3114 3116 3118 3122 3124 3126 3129 3131 3134 3136 3139 3141 3143 3145 3147 3149 3150 3151 3153
3088 3089 3089 3088 3088 3087 3086 3086 3087 3089 3089 3090 3092 3094 3094 3095 3099 3097 3098 3104 3106 3108 3111 3109 3110 3114 3116 3122 3125 3128 3130 3132 3134 3137 3140 3142 3144 3145 3148 3150 3151 3153 3154
3085 3085 3086 3085 3083 3083 3083 3084 3084 3085 3086 3087 3088 3092 3093 3095 3097 3095 3093 3100 3104 3106 3109 3108 3105 3110 3116 3122 3126 3129 3131 3133 3136 3139 3141 3144 3145 3146 3148 3150 3153 3154 3155
3082 3082 3083 3082 3081 3081 3080 3081 3080 3080 3082 3083 3085 3087 3089 3092 3094 3094 3094 3096 3101 3106 3108 3110 3111 3114 3117 3123 3127 3129 3132 3134 3137 3140 3142 3144 3146 3148 3149 3151 3153 3154 3156
3079 3079 3079 3078 3078 3078 3078 3077 3077 3077 3078 3080 3082 3083 3086 3089 3089 3090 3092 3096 3098 3104 3107 3110 3113 3116 3119 3125 3127 3129 3132 3134 3137 3140 3142 3144 3146 3148 3150 3152 3153 3155 3156
3076 3077 3076 3076 3076 3075 3075 3074 3075 3074 3076 3078 3078 3082 3081 3077 3067 3083 3089 3094 3096 3100 3105 3110 3114 3119 3121 3124 3126 3128 3131 3134 3136 3139 3142 3144 3147 3148 3150 3152 3153 3155 3157
3073 3074 3074 3074 3074 3073 3073 3072 3071 3071 3073 3074 3076 3079 3081 3081 3069 3077 3086 3091 3093 3097 3103 3108 3113 3117 3120 3123 3126 3128 3130 3133 3136 3138 3141 3143 3145 3148 3149 3151 3153 3154 3156
3069 3070 3072 3072 3071 3071 3071 3070 3069 3069 3068 3071 3074 3075 3080 3082 3080 3080 3083 3088 3092 3096 3100 3105 3111 3116 3119 3122 3125 3127 3129 3132 3135 3137 3140 3141 3143 3146 3148 3149 3151 3152 3154
3065 3066 3068 3069 3069 3068 3068 3069 3068 3066 3068 3070 3072 3074 3078 3079 3081 3080 3084 3087 3091 3094 3097 3104 3111 3115 3118 3121 3124 3126 3128 3130 3133 3136 3138 3140 3142 3144 3146 3148 3149 3151 3152
3061 3062 3064 3065 3066 3065 3066 3067 3067 3065 3065 3069 3070 3072 3075 3076 3077 3077 3081 3087 3090 3093 3100 3106 3111 3113 3116 3119 3122 3125 3127 3129 3132 3134 3136 3138 3140 3142 3144 3145 3147 3149 3150
3057 3058 3060 3062 3063 3063 3064 3064 3065 3063 3063 3067 3070 3072 3074 3074 3075 3077 3079 3084 3089 3093 3099 3104 3108 3112 3114 3117 3120 3123 3126 3128 3130 3132 3135 3137 3138 3140 3142 3144 3145 3146 3147
3053 3054 3057 3059 3060 3061 3062 3063 3065 3065 3065 3066 3068 3070 3071 3073 3074 3077 3081 3084 3088 3093 3099 3105 3108 3111 3114 3115 3119 3121 3124 3125 3127 3130 3133 3135 3136 3138 3140 3141 3142 3144 3144
3049 3051 3053 3055 3057 3058 3059 3061 3063 3065 3067 3068 3068 3069 3072 3074 3076 3080 3084 3088 3092 3096 3101 3104 3107 3110 3112 3114 3117 3120 3121 3122 3125 3127 3130 3131 3133 3135 3137 3139 3140 3141 3142
3044 3045 3047 3050 3053 3054 3056 3058 3060 3063 3066 3068 3070 3070 3071 3075 3078 3083 3087 3090 3093 3096 3100 3104 3106 3108 3110 3113 3115 3117 3119 3120 3122 3125 3127 3128 3131 3132 3133 3135 3136 3137 3138
3036 3039 3041 3043 3047 3049 3052 3055 3058 3060 3063 3066 3069 3072 3074 3075 3078 3082 3085 3089 3092 3095 3098 3101 3102 3107 3110 3112 3112 3114 3116 3117 3119 3122 3124 3125 3127 3128 3130 3131 3133 3133 3134
3030 3032 3035 3037 3040 3044 3047 3050 3054 3057 3060 3064 3067 3070 3073 3075 3078 3080 3083 3086 3089 3093 3096 3098 3101 3103 3106 3108 3109 3110 3112 3114 3116 3117 3119 3121 3123 3125 3126 3127 3128 3130 3130
3022 3025 3028 3031 3034 3037 3041 3044 3048 3052 3056 3059 3063 3066 3070 3073 3075 3078 3080 3083 3086 3089 3092 3096 3099 3101 3103 3104 3106 3108 3110 3111 3112 3114 3116 3117 3120 3122 3124 3124 3125 3126 3127
3014 3018 3021 3025 3027 3031 3035 3038 3042 3045 3050 3054 3059 3063 3067 3069 3072 3074 3076 3078 3083 3085 3088 3090 3093 3096 3100 3102 3104 3106 3107 3108 3110 3111 3112 3113 3116 3118 3119 3121 3121 3121 3122
3007 3011 3014 3019 3022 3026 3030 3033 3037 3041 3045 3049 3053 3056 3060 3064 3066 3071 3074 3075 3078 3081 3083 3087 3091 3094 3096 3097 3099 3100 3101 3105 3105 3107 3109 3110 3111 3112 3113 3114 3116 3116 3116
2999 3003 3008 3012 3017 3020 3023 3027 3030 3034 3037 3042 3046 3049 3052 3057 3061 3065 3070 3073 3077 3078 3081 3083 3085 3087 3091 3093 3094 3095 3097 3099 3100 3101 3103 3105 3106 3108 3108 3109 3110 3111 3112
2993 2998 3001 3006 3009 3013 3017 3020 3024 3026 3030 3034 3040 3044 3047 3047 3053 3056 3061 3065 3067 3071 3074 3079 3082 3084 3086 3087 3088 3090 3091 3093 3093 3096 3096 3099 3100 3102 3103 3104 3105 3105 3105
2986 2991 2993 2999 3002 3006 3009 3011 3014 3017 3022 3027 3032 3035 3039 3043 3044 3052 3054 3057 3059 3065 3068 3071 3075 3079 3079 3081 3082 3084 3086 3087 3089 3091 3091 3094 3094 3096 3096 3097 3098 3099 3100
2979 2983 2986 2990 2993 2997 3000 3002 3005 3009 3013 3018 3022 3026 3030 3034 3038 3042 3046 3050 3053 3058 3059 3063 3068 3070 3073 3074 3076 3077 3078 3081 3082 3083 3084 3086 3088 3090 3091 3091 3093 3093 3094
Wind_Speed
19 16 15 15 14 16 17 15 12 11 12 13 16 19 20 19 18 19 17 17 15 13 13 12 14 14 15 15 15 15 15 16 16 16 16 17 17 18 19 19 20 20 20
18 16 15 16 17 20 19 17 16 14 14 14 17 23 24 22 19 17 17 15 14 14 15 15 17 16 16 14 14 16 17 18 18 17 17 17 18 17 18 18 18 17 17
14 14 15 19 20 20 20 19 17 15 17 19 20 26 26 23 25 22 14 13 15 14 16 19 21 19 17 18 16 14 16 17 17 17 17 16 17 17 16 17 16 16 15
17 20 18 18 20 20 17 14 15 16 17 19 22 23 19 21 22 27 18 17 18 15 18 23 24 22 20 20 20 18 18 17 17 17 17 16 16 17 16 16 15 15 13
20 19 17 17 18 15 13 12 16 18 20 20 21 21 21 20 24 21 28 26 20 19 19 34 29 25 23 21 20 18 17 17 17 16 16 15 15 15 15 16 14 13 12
17 16 14 16 15 12 11 12 18 20 22 23 22 22 21 22 23 17 23 22 23 23 27 20 17 12 17 19 18 18 16 16 15 16 15 15 15 15 15 14 14 13 13
15 15 13 14 14 10 12 12 18 18 22 25 25 23 23 24 27 26 25 26 27 25 25 23 15 17 16 16 17 16 15 15 15 15 15 14 13 13 14 15 15 14 13
18 16 13 12 13 10 12 11 11 11 14 18 26 25 23 26 32 33 30 24 26 27 22 23 15 17 16 16 17 16 16 17 17 16 15 15 14 12 11 12 12 12 13
15 13 13 12 13 11 11 10 12 13 12 13 22 24 21 30 37 41 32 31 27 33 29 25 22 20 20 20 18 17 16 16 16 15 15 15 13 13 13 12 11 11 10
15 14 14 12 12 12 10 11 13 13 16 17 18 25 24 29 29 36 27 20 26 32 34 29 24 24 21 20 19 17 17 17 16 16 16 15 16 15 15 14 12 12 11
18 17 15 14 12 12 10 9 9 5 15 17 15 24 20 30 32 16 24 23 25 33 28 33 25 24 20 18 16 16 16 16 16 15 15 14 14 14 15 15 15 14 14
20 18 16 15 13 10 10 7 5 5 4 14 17 21 28 24 24 27 19 23 26 19 34 28 27 22 18 18 16 17 17 16 15 15 15 14 13 13 14 15 15 15 15
20 20 17 16 13 12 9 6 4 5 7 8 13 19 19 18 16 19 21 25 20 17 17 22 23 20 18 18 18 17 17 16 15 14 14 13 13 14 15 15 15 14 15
21 20 19 16 14 13 10 6 2 2 7 8 11 16 19 15 11 15 18 23 22 25 20 19 17 18 17 17 16 17 17 16 16 16 15 15 15 15 15 14 14 15 15
25 22 18 16 14 13 12 8 8 7 13 11 7 5 3 9 17 18 22 22 30 26 17 17 18 18 18 16 17 17 19 16 17 16 15 16 16 16 15 15 16 17 17
26 23 20 18 16 16 14 12 13 13 10 9 8 9 11 12 12 13 14 16 18 19 20 17 16 18 17 17 19 20 17 17 18 17 17 18 17 15 16 16 16 16 16
27 28 27 24 20 19 18 17 17 19 13 10 10 10 12 13 14 10 12 15 18 18 17 17 17 16 16 18 18 18 18 18 18 18 18 18 17 17 17 16 16 16 16
34 30 29 26 24 23 22 21 22 24 19 16 13 13 15 16 17 16 12 12 13 15 13 13 14 16 17 18 17 16 17 17 18 20 19 19 20 19 18 17 17 17 17
34 31 30 28 26 26 25 25 26 26 27 23 21 17 17 18 21 20 20 17 16 16 22 20 18 15 16 18 18 18 18 20 21 21 21 21 21 21 21 20 20 20 19
37 36 32 30 26 29 29 29 30 31 30 29 26 25 25 22 20 24 22 21 20 19 20 19 18 18 19 18 19 20 21 21 22 22 22 22 22 22 21 21 21 21 21
38 35 33 31 29 27 31 33 34 34 33 33 32 30 28 29 24 22 21 21 22 21 20 20 19 20 19 20 20 21 21 21 22 23 23 22 22 22 22 23 23 23 23
34 34 34 32 30 26 26 31 34 35 37 35 35 34 34 32 34 30 26 23 24 25 23 28 25 22 26 25 22 22 22 23 23 22 23 22 21 22 23 24 25 26 26
36 36 34 32 28 28 27 28 34 39 40 41 41 36 35 37 32 31 28 32 31 28 24 24 28 20 26 29 27 24 23 24 24 23 24 23 24 24 26 27 27 28 28
36 35 35 33 33 33 33 32 34 39 43 43 42 42 38 38 40 38 34 30 32 31 35 32 28 28 26 21 23 31 28 27 26 26 25 25 25 26 28 29 30 29 29
38 39 39 37 38 37 36 35 35 37 43 44 43 45 46 42 42 43 40 34 36 36 39 32 36 32 30 39 35 34 28 33 31 29 28 27 27 28 28 30 30 30 31
43 43 43 43 43 40 38 37 36 34 37 43 44 44 47 47 41 48 36 42 40 39 34 34 36 35 39 32 34 29 30 27 27 31 32 31 31 31 31 31 31 32 32
Wind_Direction
265 267 276 275 276 274 285 279 276 255 241 226 220 217 218 223 221 217 206 200 198 201 192 189 188 178 168 166 171 166 157 153 150 147 140 137 136 135 138 136 136 138 136
259 264 269 270 273 277 281 272 264 256 241 230 226 226 215 210 201 199 200 196 192 202 200 193 185 182 170 167 163 159 158 157 154 151 146 145 141 144 142 144 141 144 141
246 247 260 273 280 280 277 270 264 249 242 235 237 234 204 190 196 182 186 208 192 193 199 190 181 181 178 173 166 161 156 154 155 154 149 150 149 147 148 148 149 149 148
261 277 281 281 283 281 273 259 248 242 241 240 235 239 251 233 196 217 209 215 200 194 204 200 189 181 174 163 158 163 153 153 157 158 158 155 153 156 158 156 154 156 160
266 278 282 282 286 278 266 248 239 241 245 237 235 235 236 236 241 244 230 211 194 200 209 212 187 175 165 167 164 162 158 155 155 156 157 160 160 153 164 168 166 162 162
266 278 280 288 285 271 257 251 247 245 243 237 233 235 233 231 230 218 181 190 196 199 206 221 153 143 159 162 164 165 163 160 161 158 157 161 158 158 163 165 166 166 166
269 281 279 292 283 266 256 264 257 258 246 237 233 234 229 232 222 210 200 191 194 199 206 219 220 205 179 176 174 174 170 166 166 167 165 169 166 168 170 171 173 175 173
274 281 287 291 281 257 257 272 257 264 247 237 236 232 235 225 220 219 213 231 201 198 202 208 195 199 191 187 183 178 177 176 178 178 178 178 176 176 179 180 181 186 185
270 275 289 287 279 261 252 256 269 267 229 237 235 228 237 203 177 210 219 213 216 202 206 205 198 197 189 192 191 189 189 191 191 194 192 193 193 193 200 201 201 203 203
275 271 285 279 279 272 254 258 269 265 241 231 231 224 221 228 174 192 196 208 222 218 197 199 195 201 196 197 202 199 199 201 203 208 211 207 206 209 212 215 218 226 227
275 271 274 272 274 276 267 264 265 286 236 230 219 200 199 212 224 191 222 235 231 219 212 195 184 198 190 188 192 193 195 198 199 200 205 206 208 212 220 222 223 227 231
272 270 270 269 274 271 272 272 283 234 242 222 225 222 223 238 243 249 233 239 210 214 206 203 181 199 190 189 190 200 200 202 208 209 208 210 211 211 213 219 219 222 227
266 265 267 267 268 267 265 270 244 243 213 205 210 219 222 216 244 228 215 215 218 217 174 198 192 189 191 189 186 194 199 200 207 212 213 212 216 220 223 226 228 228 231
263 261 259 262 260 260 259 256 204 212 200 196 242 251 248 241 242 224 210 198 199 173 180 185 181 187 190 193 190 198 205 208 212 218 221 221 222 224 229 234 237 238 239
255 258 259 257 256 248 243 229 175 144 129 137 134 120 102 202 192 186 194 194 185 178 179 189 186 192 202 199 204 208 213 213 219 219 217 220 221 226 233 240 245 248 248
253 258 259 258 252 244 235 214 190 182 169 150 138 118 123 122 125 141 155 163 170 180 190 200 193 200 207 212 213 215 214 220 222 220 216 219 224 229 237 243 247 250 251
254 255 257 258 249 242 231 214 201 198 195 174 175 162 147 150 156 158 169 178 182 188 197 203 203 211 221 226 226 221 219 222 224 226 221 225 229 233 238 244 247 250 252
246 248 251 253 247 235 229 219 207 206 204 194 193 186 177 175 167 185 202 201 205 211 217 212 207 215 222 226 229 229 228 229 230 229 229 229 232 234 240 243 247 248 250
240 239 247 250 241 231 225 221 213 209 209 205 199 212 205 210 205 202 204 207 212 213 218 227 235 230 234 236 236 237 236 233 236 235 235 235 237 240 242 245 248 250 252
232 238 241 240 233 227 226 221 218 215 214 211 209 210 210 226 231 213 210 209 213 221 227 233 237 243 250 251 244 243 243 241 239 240 242 243 246 248 251 253 256 259 261
228 232 235 238 234 228 225 224 221 222 218 220 212 214 218 216 227 241 239 220 218 227 231 240 242 247 250 247 242 242 244 247 249 249 247 248 251 254 257 259 260 260 262
229 232 234 236 233 231 230 229 230 227 224 219 226 224 218 221 220 227 233 243 250 248 234 225 233 241 251 247 245 243 243 245 246 249 255 257 256 256 258 259 259 261 263
228 230 230 230 232 232 236 236 230 228 225 223 222 226 219 227 233 240 230 225 235 231 244 254 260 238 261 259 253 248 250 250 249 248 250 251 253 255 256 258 260 262 262
230 231 231 232 238 247 253 250 245 233 231 228 226 225 228 231 230 220 226 233 232 236 237 245 247 244 251 244 250 253 255 255 255 252 253 256 256 257 260 261 262 263 265
229 231 236 239 243 246 249 252 247 240 228 228 227 228 228 235 228 242 241 237 228 230 238 243 235 248 242 250 256 267 262 258 258 260 259 259 259 259 259 261 263 267 269
227 231 236 240 243 241 242 246 246 238 234 225 226 227 227 232 233 240 240 227 234 234 231 234 244 241 251 258 264 266 268 265 259 260 262 262 263 263 264 266 267 268 271